Hourly Weather Dzierawy

Today, 6 May, Thursday

Time Temperature Precipitation Wind Pressure Humidity
00:00 +4°C° 0 mm 8 mps 744 mmHg 75%
01:00 +3°C° 0 mm 9 mps 745 mmHg 75%
02:00 +2°C° 0 mm 8 mps 745 mmHg 76%
03:00 +2°C° 0 mm 8 mps 745 mmHg 77%
04:00 +1°C° 0 mm 8 mps 746 mmHg 78%
05:00 +2°C° 0 mm 8 mps 746 mmHg 76%
06:00 +4°C° 0 mm 8 mps 747 mmHg 73%
07:00 +4°C° 0 mm 8 mps 747 mmHg 71%
08:00 +5°C° 0 mm 8 mps 747 mmHg 64%
09:00 +6°C° 0 mm 9 mps 747 mmHg 57%
10:00 +7°C° 0 mm 9 mps 747 mmHg 50%
11:00 +8°C° 0 mm 9 mps 747 mmHg 49%
12:00 +10°C° 0 mm 8 mps 747 mmHg 49%
13:00 +11°C° 0 mm 8 mps 747 mmHg 48%
14:00 +10°C° 0.2 mm 7 mps 747 mmHg 52%
15:00 +10°C° 0.2 mm 7 mps 746 mmHg 56%
16:00 +10°C° 0.2 mm 6 mps 746 mmHg 59%
17:00 +9°C° 0.1 mm 5 mps 746 mmHg 66%
18:00 +7°C° 0.1 mm 4 mps 746 mmHg 73%
19:00 +7°C° 0.1 mm 3 mps 746 mmHg 80%
20:00 +5°C° 0 mm 3 mps 746 mmHg 82%
21:00 +6°C° 0 mm 2 mps 747 mmHg 84%
22:00 +5°C° 0 mm 2 mps 747 mmHg 86%
23:00 +5°C° 0 mm 2 mps 746 mmHg 85%

Tomorrow, 7 May, Friday

Time Temperature Precipitation Wind Pressure Humidity
00:00 +5°C° 0 mm 2 mps 746 mmHg 85%
01:00 +5°C° 0 mm 2 mps 746 mmHg 84%
02:00 +5°C° 0.4 mm 2 mps 746 mmHg 87%
03:00 +5°C° 0.4 mm 2 mps 745 mmHg 89%
04:00 +5°C° 0.4 mm 2 mps 744 mmHg 92%
05:00 +5°C° 0.7 mm 2 mps 744 mmHg 93%
06:00 +4°C° 0.7 mm 3 mps 744 mmHg 94%
07:00 +4°C° 0.7 mm 4 mps 744 mmHg 95%
08:00 +4°C° 0.3 mm 3 mps 744 mmHg 95%
09:00 +4°C° 0.3 mm 3 mps 743 mmHg 95%
10:00 +4°C° 0.3 mm 3 mps 743 mmHg 95%
11:00 +4°C° 0.3 mm 4 mps 744 mmHg 95%
12:00 +4°C° 0.3 mm 4 mps 744 mmHg 95%
13:00 +3°C° 0.3 mm 5 mps 744 mmHg 95%
14:00 +3°C° 0.4 mm 5 mps 745 mmHg 95%
15:00 +3°C° 0.4 mm 5 mps 746 mmHg 95%
16:00 +2°C° 0.4 mm 5 mps 747 mmHg 96%
17:00 +2°C° 0.6 mm 5 mps 748 mmHg 93%
18:00 +3°C° 0.6 mm 6 mps 748 mmHg 91%
19:00 +3°C° 0.6 mm 6 mps 749 mmHg 88%
20:00 +2°C° 0 mm 6 mps 750 mmHg 90%
21:00 +2°C° 0 mm 7 mps 750 mmHg 91%
22:00 +2°C° 0 mm 7 mps 751 mmHg 93%
23:00 +2°C° 0 mm 7 mps 751 mmHg 91%

Day after tomorrow, 8 May, Saturday

Time Temperature Precipitation Wind Pressure Humidity
00:00 +2°C° 0 mm 6 mps 751 mmHg 89%
01:00 +2°C° 0 mm 6 mps 752 mmHg 87%
02:00 +2°C° 0 mm 6 mps 752 mmHg 89%
03:00 +1°C° 0 mm 6 mps 753 mmHg 91%
04:00 +1°C° 0 mm 6 mps 753 mmHg 93%
05:00 +2°C° 0 mm 6 mps 754 mmHg 90%
06:00 +2°C° 0 mm 5 mps 754 mmHg 87%
07:00 +3°C° 0 mm 5 mps 754 mmHg 84%
08:00 +4°C° 0 mm 6 mps 755 mmHg 76%
09:00 +7°C° 0 mm 6 mps 755 mmHg 67%
10:00 +8°C° 0 mm 7 mps 755 mmHg 58%
11:00 +9°C° 0.1 mm 7 mps 755 mmHg 57%
12:00 +9°C° 0.1 mm 7 mps 755 mmHg 55%
13:00 +10°C° 0.1 mm 7 mps 755 mmHg 54%
14:00 +10°C° 0 mm 6 mps 755 mmHg 53%
15:00 +10°C° 0 mm 6 mps 755 mmHg 51%
16:00 +10°C° 0 mm 5 mps 755 mmHg 50%
17:00 +10°C° 0 mm 4 mps 755 mmHg 56%
18:00 +9°C° 0 mm 3 mps 755 mmHg 63%
19:00 +8°C° 0 mm 1 mps 755 mmHg 70%
20:00 +7°C° 0 mm 2 mps 756 mmHg 71%
21:00 +6°C° 0 mm 2 mps 756 mmHg 72%
22:00 +5°C° 0 mm 2 mps 756 mmHg 73%
23:00 +5°C° 0 mm 2 mps 756 mmHg 74%

9 May, Sunday

Time Temperature Precipitation Wind Pressure Humidity
00:00 +3°C° 0 mm 3 mps 756 mmHg 74%
01:00 +3°C° 0 mm 3 mps 756 mmHg 75%
02:00 +3°C° 0 mm 3 mps 756 mmHg 78%
03:00 +3°C° 0 mm 3 mps 756 mmHg 81%
04:00 +3°C° 0 mm 3 mps 755 mmHg 83%
05:00 +5°C° 0 mm 4 mps 755 mmHg 79%
06:00 +6°C° 0 mm 5 mps 755 mmHg 74%
07:00 +8°C° 0 mm 5 mps 755 mmHg 70%
08:00 +10°C° 0 mm 6 mps 755 mmHg 66%
09:00 +12°C° 0 mm 7 mps 754 mmHg 62%
10:00 +15°C° 0 mm 7 mps 754 mmHg 57%
11:00 +15°C° 0 mm 7 mps 754 mmHg 55%
12:00 +16°C° 0 mm 7 mps 754 mmHg 54%
13:00 +17°C° 0 mm 7 mps 753 mmHg 52%
14:00 +18°C° 0 mm 7 mps 753 mmHg 55%
15:00 +19°C° 0 mm 6 mps 753 mmHg 58%
16:00 +19°C° 0 mm 6 mps 753 mmHg 61%
17:00 +17°C° 0 mm 5 mps 753 mmHg 64%
18:00 +15°C° 0 mm 5 mps 752 mmHg 68%
19:00 +14°C° 0 mm 5 mps 752 mmHg 71%
20:00 +13°C° 0 mm 5 mps 752 mmHg 70%
21:00 +12°C° 0 mm 5 mps 753 mmHg 69%
22:00 +12°C° 0 mm 5 mps 753 mmHg 68%
23:00 +10°C° 0 mm 5 mps 753 mmHg 69%

10 May, Monday

Time Temperature Precipitation Wind Pressure Humidity
00:00 +10°C° 0 mm 4 mps 753 mmHg 70%
01:00 +10°C° 0 mm 4 mps 752 mmHg 71%
02:00 +10°C° 0 mm 4 mps 752 mmHg 72%
03:00 +8°C° 0 mm 4 mps 752 mmHg 73%
04:00 +8°C° 0 mm 4 mps 752 mmHg 74%
05:00 +10°C° 0 mm 4 mps 752 mmHg 73%
06:00 +12°C° 0 mm 4 mps 752 mmHg 72%
07:00 +13°C° 0 mm 4 mps 752 mmHg 71%
08:00 +15°C° 0 mm 5 mps 752 mmHg 65%
09:00 +17°C° 0 mm 5 mps 752 mmHg 60%
10:00 +20°C° 0 mm 6 mps 752 mmHg 55%
11:00 +21°C° 0 mm 6 mps 752 mmHg 54%
12:00 +22°C° 0 mm 6 mps 751 mmHg 52%
13:00 +23°C° 0 mm 6 mps 751 mmHg 51%
14:00 +23°C° 0 mm 5 mps 751 mmHg 54%
15:00 +23°C° 0 mm 5 mps 751 mmHg 57%
16:00 +23°C° 0 mm 4 mps 751 mmHg 60%
17:00 +21°C° 0 mm 4 mps 751 mmHg 67%
18:00 +19°C° 0 mm 3 mps 751 mmHg 73%
19:00 +18°C° 0 mm 3 mps 750 mmHg 80%
20:00 +17°C° 0 mm 3 mps 750 mmHg 82%
21:00 +16°C° 0 mm 3 mps 750 mmHg 83%
22:00 +14°C° 0 mm 3 mps 750 mmHg 85%
23:00 +14°C° 0 mm 4 mps 750 mmHg 86%

11 May, Tuesday

Time Temperature Precipitation Wind Pressure Humidity
00:00 +13°C° 0 mm 4 mps 749 mmHg 86%
01:00 +13°C° 0 mm 4 mps 749 mmHg 87%
02:00 +13°C° 0 mm 4 mps 749 mmHg 86%
03:00 +13°C° 0 mm 5 mps 748 mmHg 86%
04:00 +13°C° 0 mm 5 mps 748 mmHg 85%
05:00 +14°C° 0 mm 5 mps 748 mmHg 83%
06:00 +15°C° 0 mm 6 mps 748 mmHg 80%
07:00 +16°C° 0 mm 6 mps 748 mmHg 78%
08:00 +19°C° 0 mm 6 mps 748 mmHg 72%
09:00 +21°C° 0 mm 7 mps 748 mmHg 67%
10:00 +23°C° 0 mm 7 mps 748 mmHg 61%
11:00 +23°C° 0 mm 7 mps 748 mmHg 60%
12:00 +24°C° 0 mm 7 mps 748 mmHg 59%
13:00 +26°C° 0 mm 7 mps 748 mmHg 58%
14:00 +26°C° 0 mm 6 mps 747 mmHg 60%
15:00 +26°C° 0 mm 6 mps 747 mmHg 62%
16:00 +26°C° 0 mm 5 mps 747 mmHg 64%
17:00 +23°C° 0 mm 4 mps 747 mmHg 69%
18:00 +22°C° 0 mm 4 mps 747 mmHg 74%
19:00 +20°C° 0 mm 3 mps 747 mmHg 80%
20:00 +19°C° 0 mm 3 mps 747 mmHg 83%
21:00 +18°C° 0 mm 4 mps 747 mmHg 85%
22:00 +17°C° 0 mm 4 mps 747 mmHg 88%
23:00 +17°C° 0 mm 4 mps 747 mmHg 89%
Show more

We Need Your Consent

Meteoprog and our Service Providers may store and access personal data such as cookies, device identifiers or other similar technologies on your device and process such data to personalise content and ads, as well as provide social media features and to analyse the traffic.

  • Store and/or access information on your device

    Cookies, device identifiers or other information can be stored or accessed on your device for the purposes indicated above.

  • Personalised ads and content, ad and content measurement, audience insights, and products development

    Ads and content can be personalised based on a profile. More data can be added to better personalise ads and content. Ad and content performance can be measured. Insights about the audience who saw the ads and content can be derived. Such data can be used to develop or improve user’s experience, systems and software.

By clicking ‘I Agree’ you will allow the use of indicated cookies, device identifiers, web beacons or other similar technologies. Your settings can be changed in the browser on your device.

For certain purposes, legitimate interests may be relied on, rather than consent. You can read more about this in our Privacy and Cookie Policy.